エンケ彗星

2P/Encke (2023)

English version
Home page
Updated on December 1, 2023

---------------------------------------------------------------------

・ プロフィール

・ 写真集

・ 軌道要素

Epoch 2023 Feb. 25.0 TT = JDT 2460000.5
T 2023 Oct. 22.47352 TT                                 Rudenko
q   0.3392896            (2000.0)            P               Q
n   0.29807698     Peri.  187.23911     -0.94620174     -0.31192374
a   2.2194759      Node   334.07326     +0.30586875     -0.77542993
e   0.8471308      Incl.   11.35150     +0.10557730     -0.54901002
P   3.31
>From 3153 observations 2009 Aug. 22-2023 June 25, mean residual 0".8.
     Nongravitational parameters A1 = +0.00, A2 = +0.0000.

・ 星図

・ 光度変化

        H = 14.2  G = 0.15                [    ,-110]  (              〜2023年 7月 4日)
        m1 =  9.8 + 5 logΔ + 25   log r  [-110, -45]  (2023年 7月 4日〜2023年 9月 7日)
        m1 = 10.3 + 5 logΔ +  7   log r  [ -45,  20]  (2023年 9月 7日〜2023年11月11日)
        m1 = 12.3 + 5 logΔ + 15.7 log r  [  20,  85]  (2023年11月11日〜2024年 1月15日)
        H = 14.2  G = 0.15                [  85,    ]  (2024年 1月15日〜              )

---------------------------------------------------------------------

軌道要素はM.P.E.C. 2023-N01に掲載されたものです。
星図はステラナビゲータ Ver.10 (アストロアーツ) で作成したものです。
光度グラフはComet for Windowsで作成したものです。

---------------------------------------------------------------------

Copyright(C) Seiichi Yoshida (comet@aerith.net). All rights reserved.